OV1-13 R/B, 3212

Orbit data source: Space-Track

OV1-13 R/B, 3212 is space debris originally from a launch on Sat, 06 Apr 1968 UTC launched from the Air Force Western Test Range (AFWTR). Debris objects in space refer to the collection of defunct objects orbiting the Earth. Examples of debris include non-operational satellites, rocket bodies, and fragments generated from explosions, collisions, or faulty payload assembly.

Loading next visibility...
Identifier
3212, 1968-026D
Orbit
Active
Country
Flag of USUS
Related business
Manufacturer
UTC
Mission
Spacecraft
Bus & Motor
FW4, Unknown motor
Mass
125 kg wet, 125 kg dry
Launch date (UTC)
1968-04-06 (58 years ago)
Launch vehicle
Unknown
Launch site
Air Force Western Test Range (AFWTR)
Object type
Payload
Rocket body
Debris
Shape & HBR
Unknown
Radar Cross Section
Large (>1 m²)

Expand to show TLE details & history
Last TLE update: 13 hours ago

TLE from 13 hours ago
0 OV1-13 R/B
1  3212U 68026D   26127.41712199 -.00000014  00000-0  45550-6 0  9993
2  3212 100.0013  38.9272 3788872 252.8735  63.0331  7.28615211317382
Epoch: 2026-05-07T10:00Z
TLE epoch observation values (Epoch: 2026-05-07T10:00:39.339Z)
Latitude
-0°
Longitude
23.49973°
Altitude
4,465.716 km
Speed
6.17 km/s
True Right ascension
02h 35m 42s
True Declination
0° 00' 00"
Sunlit
Object was in daylight at epoch
Visualization orbit readout
Latitude
Unknown
Longitude
Unknown
Altitude
Unknown
Speed
Unknown
Apparent Right ascension
Unknown
Apparent Declination
Unknown
Sunlit
N/A
Visualization observer readout
Local Sidereal Time
07:10:40
Azimuth
Unknown
Elevation
Unknown
Doppler factor
Unknown
Orbital elements
Apogee altitude
9,116.396 km
Perigee altitude
601.297 km
Semi-major axis
11,236.984 km
Eccentricity
0.37889
Inclination
100.0013°
RAAN
38.9272°
Arg. of periapsis
252.8735°
True anomaly
107.2212°
Mean anomaly
63.0331°
Eccentric anomaly
84.64706°
Mean motion
1.82208 °/min
Orbital period
197.58 mins
BSTAR
4.555e-7
Loading maneuver chart data...
Computing Atmospheric mass density...
Loading historical data...
Loading historical data...
Loading historical data...
Loading historical data...
Loading historical data...
Loading historical data...
Loading historical data...
Other satellites on launch #26 in the year 1968 (1968-04-06 UTC)

Documentation

Showing up to 5 results
|